#timestamp,LO_Frequency,Hit,StdDev 
1568732415.4,286046999.8,N
1568732435.2,286046999.9,N
1568732455.1,286047000.2,N
1568732456.0,286047000.2,N
1568732475.8,286047001.7,N
1568732495.7,286046999.7,N
1568732515.5,286047002.7,N
1568732535.3,286047001.5,N
1568732555.2,286047003.6,Y
1568732575.0,286047001.9,P
1568732575.9,286047001.9,P
1568732595.7,286047002.1,P
1568732615.6,286047002.2,Y
1568732635.4,286046998.4,P
1568732655.3,286046998.8,N
1568732675.1,286047000.8,N
1568732695.8,286046998.5,N
1568732715.7,286046999.0,N
1568732735.5,286046998.7,N
1568732755.4,286046997.3,N
1568732775.2,286046997.4,N
1568732795.0,286046996.5,N
1568732795.9,286046996.5,N
1568732815.8,286046999.0,N
1568732835.6,286046996.9,N
1568732855.5,286046998.2,N
1568732875.3,286047001.2,N
1568732895.1,286046999.9,N
1568732915.9,286047000.4,N
1568732935.7,286046999.7,N
1568732955.5,286047000.1,N
1568732975.4,286046999.7,N
1568732995.2,286047000.0,N
1568733015.1,286046998.3,N
1568733016.0,286046998.3,N
1568733035.8,286046996.7,N
1568733055.6,286046997.3,N
1568733075.5,286046996.7,N
1568733095.3,286046997.7,N
1568733115.1,286046997.5,N
1568733135.9,286046994.9,Y
1568733155.7,286046999.0,P
1568733175.6,286046998.9,P
1568733195.5,286047000.6,P
1568733215.3,286047002.8,Y
1568733235.2,286047001.3,P
1568733255.9,286047003.5,P
1568733275.7,286047001.7,N
1568733295.6,286047001.7,N
1568733315.4,286047002.8,N
1568733335.3,286047002.3,N
1568733355.1,286047001.8,N
1568733356.0,286047011.9,Y
1568733375.8,286046999.9,P
1568733395.7,286047001.6,N
1568733415.5,286047001.7,N
1568733435.4,286047001.4,N
1568733455.2,286047006.0,Y
1568733475.0,286047001.5,P
1568733475.9,286047001.5,P
1568733495.8,286047004.0,P
1568733515.6,286047003.9,Y
1568733535.5,286047001.0,P
1568733555.3,286047001.1,N
1568733575.1,286046998.1,P
1568733595.9,286046998.7,N
1568733615.7,286046999.1,N
1568733635.5,286046998.6,N
1568733655.4,286046999.3,N
1568733675.2,286046997.0,N
1568733695.1,286046997.0,N
1568733696.0,286046997.0,N
1568733715.8,286046996.6,N
1568733735.6,286046999.5,N
1568733755.5,286046997.2,N
1568733775.3,286046996.8,N
1568733795.2,286046997.0,N
1568733815.9,286046996.9,N
1568733835.7,286046996.8,N
1568733855.6,286046997.7,N
1568733875.4,286046997.4,N
1568733895.2,286046996.6,N
1568733915.1,286046996.7,N
1568733916.0,286046996.7,N
1568733935.8,286046998.8,N
1568733955.7,286046996.7,N
1568733975.5,286046996.7,N
1568733995.3,286046997.0,N
1568734015.2,286046996.5,N
1568734035.0,286046996.8,N
1568734035.9,286046996.8,N
1568734055.8,286046995.1,Y
1568734075.6,286046998.9,P
1568734095.4,286046999.6,N
1568734115.3,286046996.5,P
1568734135.1,286046999.6,N
1568734155.9,286046996.6,N
1568734175.7,286046997.9,N
1568734195.5,286046996.0,Y
1568734215.4,286046995.7,P
1568734235.2,286046997.8,N
1568734255.1,286046999.4,N
1568734256.0,286046999.4,N
1568734275.8,286046999.2,N
1568734295.6,286046999.3,N
1568734315.5,286046996.9,N
1568734335.3,286046994.9,Y
1568734355.2,286046996.9,P
1568734375.9,286046998.8,N
1568734395.7,286047001.2,N
1568734415.6,286046999.0,N
1568734435.4,286046996.5,N
1568734455.3,286046997.5,N
1568734475.1,286046996.6,N
1568734476.0,286046996.6,N
1568734495.8,286046996.9,N
1568734515.7,286046998.4,N
1568734535.5,286047000.8,N
1568734555.3,286046998.3,N
1568734575.2,286046996.9,N
1568734595.0,286046999.6,N
1568734595.9,286046999.6,N
1568734615.8,286046997.7,N
1568734635.6,286046999.6,N
1568734655.4,286046997.1,N
1568734675.3,286046997.9,N
1568734695.1,286046994.9,Y
1568734715.9,286046999.6,P
1568734735.7,286046998.5,N
1568734755.5,286046999.0,N
1568734775.4,286046999.3,N
1568734795.2,286047000.7,N
1568734815.0,286046999.6,N
1568734816.0,286046999.6,N
1568734835.8,286046998.1,N
1568734855.6,286047000.4,N
1568734875.5,286046999.5,N
1568734895.3,286046998.8,N
1568734915.1,286047000.8,N
1568734935.9,286047000.0,N
1568734955.7,286046998.6,N
1568734975.6,286046999.9,N
1568734995.4,286047001.4,N
1568735015.2,286047003.9,Y
1568735035.1,286047003.7,P
1568735036.0,286047003.7,N
1568735055.8,286047002.0,N
1568735075.7,286046999.9,N
1568735095.5,286047002.3,N
1568735115.3,286046999.9,N
1568735135.2,286047000.8,N
1568735155.0,286046999.9,N
1568735155.9,286046999.9,N
1568735175.8,286047001.3,N
1568735195.6,286047003.9,N
1568735215.4,286047003.7,N
1568735235.3,286047005.6,Y
1568735255.1,286047001.4,P
1568735275.9,286047003.8,P
1568735295.7,286047004.4,P
1568735315.5,286047004.1,Y
1568735335.4,286046998.1,P
1568735355.2,286046996.6,N
1568735375.0,286046996.6,N
1568735376.0,286046996.6,N
1568735395.8,286046996.7,N
1568735415.6,286046998.9,N
1568735435.5,286046999.2,N
1568735455.3,286046998.8,N
1568735475.2,286046999.2,N
1568735495.9,286046999.3,N
1568735515.7,286046999.3,N
1568735535.6,286046999.2,N
1568735555.4,286046999.1,N
1568735575.3,286047001.0,N
1568735595.1,286047002.8,N
1568735596.0,286047002.8,N
1568735615.8,286047000.1,N
1568735635.7,286046998.2,N
1568735655.5,286046998.4,N
1568735675.3,286047001.2,N
1568735695.2,286046998.3,N
1568735715.0,286046996.7,N
1568735715.9,286046996.7,N
1568735735.8,286046997.3,N
1568735755.6,286046995.3,N
1568735775.4,286046996.8,N
1568735795.3,286046997.2,N
1568735815.1,286046998.0,N
1568735835.8,286046995.1,N
1568735855.7,286046997.9,N
1568735875.5,286046995.5,N
1568735895.4,286046998.0,N
1568735915.2,286046997.3,N
1568735935.0,286046999.6,N
1568735935.9,286046999.6,N
1568735955.8,286046999.3,N
1568735975.6,286046996.6,N
1568735995.5,286046998.5,N
